[[{"header":{"parameterUnit":"m.s-1","parameterCategory":1,"la1":30.2991,"la2":30.254,"lo1":-89.0895,"lo2":-89.0444,"dy":0.0017,"dx":0.0017,"nx":28,"ny":28,"refTime":"2024-07-23T21:00:00:Z","depth":0,"parameterNumber":2,"parameterNumberName":"U-component_of_WINDS"},"data":[0,0,0,0,0,0,0,0,0,0,0,0,0,0,0,0,0,0,0,0,0,0,0,0,0,0,0,0,0,0,0,0,0,0,0,0,0,0,0,0,0,0,0,0,0,0,0,0,0,0,0,0,0,0,0,0,0,0,-0.6688,-0.6688,0,-0.6679,-0.6679,-0.6678,-0.6697,-0.6697,-0.6698,-0.6698,-0.6685,-0.6684,-0.6683,0,0,0,0,0,0,0,0,0,0,0,0,0,-0.6721,-0.672,-0.6688,-0.6688,-0.6688,-0.6679,-0.6679,-0.6678,-0.6696,-0.6697,-0.6698,-0.6699,-0.6686,-0.6684,-0.6683,0,0,0,0,0,0,0,0,0,0,0,0,0,-0.6708,-0.672,-0.6688,-0.6696,-0.6697,-0.6679,-0.6679,-0.6678,-0.6696,-0.6697,-0.6698,-0.6699,-0.6686,-0.6685,-0.6683,-0.6656,0,0,-0.6679,-0.6678,0,0,0,0,0,0,0,0,-0.6709,-0.6707,-0.6695,-0.6695,-0.6696,-0.669,-0.6685,-0.6671,-0.6696,-0.6696,-0.6698,-0.6699,-0.6686,-0.6684,-0.6681,-0.6656,-0.6655,-0.6679,-0.6678,-0.6677,-0.6677,0,0,0,0,0,0,0,-0.671,-0.6708,-0.6684,-0.6695,-0.6695,-0.6699,-0.6699,-0.6683,-0.6686,-0.6696,-0.6698,-0.6696,-0.6686,-0.6682,-0.668,-0.6655,-0.6679,-0.6678,-0.6677,-0.6676,-0.661,-0.6609,0,0,0,0,0,0,-0.671,-0.6708,-0.6685,-0.6684,-0.6705,-0.6698,-0.6697,-0.6691,-0.6686,-0.6686,-0.6696,-0.6697,-0.6684,-0.6682,-0.668,-0.6649,-0.6677,-0.6676,-0.6675,-0.6611,-0.6609,-0.6608,0,0,0,0,0,0,-0.6711,-0.6708,-0.6685,-0.6697,-0.6694,-0.6697,-0.6689,-0.669,-0.6686,-0.6686,-0.6686,-0.6691,-0.6684,-0.6682,-0.6663,-0.6649,-0.6676,-0.6674,-0.6612,-0.661,-0.6609,-0.6587,0,0,0,0,0,0,-0.6712,-0.6708,-0.6698,-0.6696,-0.6693,-0.6668,-0.6688,-0.6689,-0.6684,-0.6686,-0.6681,-0.6681,-0.6685,-0.6665,-0.6661,-0.6648,-0.6673,-0.6613,-0.6611,-0.6609,-0.6589,-0.6585,-0.6582,0,0,0,0,0,-0.6713,-0.6691,-0.6697,-0.6694,-0.6681,-0.6667,-0.6666,-0.6671,-0.6683,-0.6672,-0.6673,-0.6681,-0.6651,-0.6663,-0.6659,-0.6645,-0.6614,-0.6612,-0.6609,-0.6591,-0.6586,-0.6582,0,0,0,0,0,0,-0.6689,-0.6691,-0.6698,-0.6675,-0.6671,-0.6671,-0.6658,-0.6666,-0.6658,-0.666,-0.6666,-0.6665,-0.6645,-0.6643,-0.6655,-0.6619,-0.6634,-0.6631,-0.6621,-0.6617,-0.6613,-0.6614,-0.6672,0,0,0,0,0,-0.6682,-0.6672,-0.6673,-0.6653,-0.6651,-0.6655,-0.6649,-0.6654,-0.665,-0.6648,-0.6647,-0.6641,-0.6631,-0.6624,-0.6614,-0.6589,-0.6589,-0.6578,-0.6574,-0.6571,-0.6568,-0.6556,-0.6551,-0.6601,-0.6601,-0.6601,0,0,-0.6666,-0.6665,-0.6658,-0.6648,-0.6646,-0.6635,-0.6653,-0.664,-0.6632,-0.6645,-0.6628,-0.6627,-0.6622,-0.66,-0.659,-0.6598,-0.6555,-0.6568,-0.6566,-0.6565,-0.6553,-0.6549,-0.6545,-0.66,-0.66,-0.66,0,0,-0.6631,-0.6629,-0.6613,-0.6611,-0.6608,-0.6611,-0.6607,-0.6606,-0.6606,-0.6589,-0.6599,-0.6589,-0.6571,-0.6567,-0.6563,-0.6529,-0.6537,-0.6526,-0.6506,-0.6495,-0.6491,-0.6487,-0.6476,-0.6471,-0.6523,-0.6523,-0.6523,0,-0.661,-0.6595,-0.6603,-0.659,-0.6586,-0.66,-0.6584,-0.6581,-0.6574,-0.657,-0.6579,-0.6558,-0.6555,-0.6534,-0.6526,-0.6521,-0.6517,-0.6526,-0.6491,-0.6487,-0.6484,-0.6473,-0.6469,-0.6522,-0.6522,-0.6522,-0.6522,0,-0.6571,-0.656,-0.6547,-0.6542,-0.6536,-0.6522,-0.6528,-0.6521,-0.6527,-0.6529,-0.6512,-0.651,-0.6501,-0.6496,-0.6501,-0.6475,-0.648,-0.649,-0.6505,-0.6478,-0.6468,-0.6464,-0.652,-0.652,-0.6521,-0.6521,0,0,-0.6519,-0.6521,-0.6516,-0.6515,-0.6513,-0.6504,-0.6491,-0.6483,-0.6478,-0.6473,-0.6462,-0.6447,-0.6457,-0.6452,-0.6457,-0.6446,-0.6421,-0.6458,-0.6458,-0.6451,-0.6393,-0.6386,-0.6381,-0.6427,-0.6426,-0.6425,-0.6394,0,-0.6485,-0.6462,-0.647,-0.6447,-0.6438,-0.6452,-0.644,-0.6438,-0.644,-0.6432,-0.6434,-0.6424,-0.6437,-0.6434,-0.6425,-0.6426,-0.6409,-0.6428,-0.6416,-0.6415,-0.6417,-0.6376,-0.6368,-0.6338,-0.639,-0.6389,-0.6389,0,-0.6441,-0.6437,-0.6413,-0.6415,-0.6411,-0.6401,-0.6395,-0.6387,-0.6385,-0.6388,-0.6384,-0.6392,-0.6378,-0.6394,-0.6376,-0.6389,-0.6385,-0.6385,-0.6384,-0.6383,-0.64,-0.6373,-0.6329,-0.6324,-0.6383,-0.6383,-0.6384,0,-0.6407,-0.6395,-0.6379,-0.6378,-0.6379,-0.6372,-0.6372,-0.6371,-0.6366,-0.6362,-0.6359,-0.6352,-0.6348,-0.6343,-0.6349,-0.636,-0.633,-0.6346,-0.6332,-0.6332,-0.6324,-0.6324,-0.6278,-0.6321,-0.6322,-0.6322,-0.6322,0,-0.6367,-0.6352,-0.6364,-0.6354,-0.6338,-0.6348,-0.6332,-0.6334,-0.6333,-0.6324,-0.6336,-0.6327,-0.6335,-0.6327,-0.6332,-0.6317,-0.6315,-0.6316,-0.6318,-0.6315,-0.6315,-0.6312,-0.6314,-0.632,-0.6321,-0.6321,-0.6321,0,-0.6325,-0.6333,-0.6317,-0.6321,-0.6321,-0.6309,-0.6312,-0.6304,-0.6308,-0.6296,-0.6294,-0.63,-0.6291,-0.6297,-0.6288,-0.6291,-0.6271,-0.6275,-0.6272,-0.6273,-0.6259,-0.626,-0.6209,-0.6203,-0.625,-0.6249,-0.6249,0,-0.63,-0.6289,-0.6292,-0.6288,-0.6288,-0.628,-0.6276,-0.6286,-0.6281,-0.6279,-0.6271,-0.6264,-0.6258,-0.6244,-0.6247,-0.6241,-0.6245,-0.6227,-0.6243,-0.6242,-0.6245,-0.6245,-0.6245,-0.6223,-0.6223,-0.6222,-0.6222,0,-0.6254,-0.6259,-0.6253,-0.6249,-0.6245,-0.6242,-0.624,-0.6235,-0.6245,-0.6239,-0.6232,-0.6228,-0.622,-0.6212,-0.6207,-0.6207,-0.6216,-0.6217,-0.6214,-0.6211,-0.621,-0.621,-0.6263,-0.6218,-0.6218,-0.6219,-0.6219,-0.6219,-0.622,-0.6211,-0.6213,-0.6206,-0.6206,-0.6205,-0.6197,-0.6201,-0.6195,-0.619,-0.6196,-0.6187,-0.6187,-0.6181,-0.618,-0.6173,-0.618,-0.6174,-0.6173,-0.6171,-0.617,-0.6211,-0.6172,-0.6172,-0.6172,-0.6172,-0.6172,0,-0.6175,-0.6177,-0.6171,-0.6169,-0.6164,-0.6175,-0.6174,-0.6169,-0.6161,-0.616,-0.6156,-0.6147,-0.6141,-0.6144,-0.6139,-0.6132,-0.6137,-0.6131,-0.6131,-0.6131,-0.6163,-0.6167,-0.6128,-0.6128,-0.6128,-0.6128,-0.6128,-0.6128,-0.6151,-0.6137,-0.6143,-0.613,-0.6132,-0.6124,-0.6122,-0.6121,-0.6121,-0.6111,-0.6106,-0.6109,-0.6111,-0.6106,-0.61,-0.6102,-0.6099,-0.6092,-0.6094,-0.6124,-0.6129,-0.6133,-0.6137,-0.6091,-0.6091,-0.6063,-0.6062,-0.6062]},{"header":{"parameterUnit":"m.s-1","parameterCategory":1,"la1":30.2991,"la2":30.254,"lo1":-89.0895,"lo2":-89.0444,"dy":0.0017,"dx":0.0017,"nx":28,"ny":28,"refTime":"2024-07-23T21:00:00:Z","depth":0,"parameterNumber":3,"parameterNumberName":"V-component_of_WINDS"},"data":[0,0,0,0,0,0,0,0,0,0,0,0,0,0,0,0,0,0,0,0,0,0,0,0,0,0,0,0,0,0,0,0,0,0,0,0,0,0,0,0,0,0,0,0,0,0,0,0,0,0,0,0,0,0,0,0,0,0,3.5632,3.5631,0,3.5553,3.5552,3.5551,3.5513,3.5513,3.5513,3.5513,3.5429,3.5427,3.5425,0,0,0,0,0,0,0,0,0,0,0,0,0,3.5746,3.5744,3.5632,3.5631,3.563,3.5553,3.5552,3.5551,3.5513,3.5513,3.5513,3.5513,3.543,3.5427,3.5424,0,0,0,0,0,0,0,0,0,0,0,0,0,3.5685,3.5743,3.5632,3.5602,3.5598,3.5554,3.5552,3.5551,3.5513,3.5513,3.5513,3.5514,3.5431,3.5427,3.5424,3.5402,0,0,3.5414,3.5412,0,0,0,0,0,0,0,0,3.5688,3.5681,3.5607,3.5604,3.56,3.5543,3.5562,3.5501,3.5513,3.5545,3.5513,3.5514,3.5467,3.546,3.5445,3.5398,3.5395,3.5413,3.5411,3.541,3.5409,0,0,0,0,0,0,0,3.5693,3.5684,3.56,3.5606,3.5602,3.5591,3.5583,3.555,3.5507,3.5543,3.554,3.5531,3.5465,3.5449,3.5443,3.5393,3.5413,3.541,3.5408,3.5407,3.5326,3.5326,0,0,0,0,0,0,3.5702,3.5688,3.5603,3.5598,3.5645,3.5589,3.558,3.5561,3.5507,3.5499,3.5531,3.553,3.5455,3.5447,3.544,3.5412,3.541,3.5407,3.5405,3.5326,3.5326,3.5325,0,0,0,0,0,0,3.5705,3.5695,3.5606,3.5642,3.563,3.5587,3.5567,3.556,3.5544,3.5498,3.549,3.5523,3.5454,3.5445,3.5412,3.5408,3.5405,3.5402,3.5326,3.5326,3.5326,3.5354,0,0,0,0,0,0,3.5708,3.5696,3.5688,3.5642,3.5628,3.5581,3.5567,3.5558,3.5539,3.5536,3.5489,3.5481,3.5454,3.5418,3.5409,3.5403,3.5399,3.5326,3.5326,3.5326,3.5354,3.5355,3.5357,0,0,0,0,0,3.5712,3.5698,3.5688,3.5678,3.5617,3.558,3.5572,3.5543,3.5538,3.5529,3.5501,3.5482,3.541,3.5415,3.5405,3.5398,3.5326,3.5326,3.5326,3.5353,3.5355,3.5357,0,0,0,0,0,0,3.5742,3.5691,3.5679,3.565,3.562,3.5574,3.5562,3.5545,3.5515,3.5514,3.5477,3.5467,3.5438,3.5414,3.542,3.5375,3.5367,3.5364,3.5391,3.5392,3.5394,3.54,3.5396,0,0,0,0,0,3.5745,3.5721,3.5677,3.5655,3.5641,3.5605,3.5587,3.5567,3.5534,3.5521,3.549,3.5458,3.5428,3.5409,3.5379,3.535,3.534,3.5341,3.5342,3.5344,3.5342,3.5327,3.5327,3.5325,3.5325,3.5325,0,0,3.5751,3.5721,3.5707,3.5661,3.5635,3.561,3.5594,3.5567,3.5548,3.5516,3.5485,3.5461,3.5422,3.5393,3.5378,3.5372,3.5341,3.5344,3.5345,3.5342,3.5326,3.5327,3.5327,3.5324,3.5325,3.5325,0,0,3.5749,3.5724,3.5703,3.5679,3.5642,3.5618,3.5613,3.557,3.5554,3.5521,3.5498,3.5474,3.5423,3.5397,3.5378,3.5369,3.5351,3.536,3.5368,3.5353,3.5353,3.5353,3.535,3.535,3.5359,3.5359,3.5359,0,3.5761,3.5723,3.5694,3.567,3.5651,3.5623,3.5602,3.5579,3.5533,3.552,3.5516,3.5453,3.5425,3.5389,3.5388,3.5372,3.5366,3.5365,3.5356,3.5355,3.5355,3.5352,3.5351,3.536,3.536,3.536,3.536,0,3.574,3.5714,3.5702,3.5661,3.564,3.5617,3.5585,3.5567,3.555,3.5526,3.5494,3.546,3.5424,3.5414,3.5395,3.5376,3.5374,3.5363,3.5354,3.5357,3.5354,3.5352,3.5362,3.5362,3.5361,3.5361,0,0,3.5752,3.5698,3.5693,3.5675,3.5633,3.5612,3.5589,3.5555,3.5541,3.551,3.549,3.5449,3.5439,3.5417,3.5396,3.5383,3.5379,3.5374,3.5372,3.5376,3.5356,3.5365,3.5364,3.5368,3.5368,3.5367,3.536,0,3.5744,3.5702,3.5677,3.5645,3.5621,3.5596,3.5576,3.5547,3.5525,3.5501,3.5476,3.5448,3.5437,3.5424,3.541,3.5383,3.5375,3.5383,3.5348,3.5347,3.5358,3.5362,3.537,3.5365,3.5358,3.5358,3.5358,0,3.5729,3.5702,3.5669,3.5631,3.562,3.5602,3.557,3.5548,3.5516,3.5501,3.5477,3.5457,3.5431,3.5425,3.5389,3.5395,3.5379,3.5364,3.5363,3.5358,3.5352,3.5357,3.5362,3.5361,3.5355,3.5355,3.5356,0,3.5742,3.5697,3.5672,3.5657,3.5612,3.56,3.5581,3.5549,3.5531,3.5503,3.5491,3.5459,3.5442,3.5418,3.5389,3.5387,3.5356,3.5348,3.5342,3.5343,3.5336,3.5337,3.5338,3.5327,3.5327,3.5327,3.5327,0,3.5736,3.5716,3.5677,3.5661,3.5639,3.561,3.5588,3.5567,3.5539,3.5518,3.5494,3.5475,3.5439,3.5415,3.5393,3.5367,3.5359,3.5345,3.534,3.5347,3.5349,3.5336,3.5336,3.5326,3.5326,3.5327,3.5327,0,3.5746,3.5719,3.5689,3.5651,3.5641,3.5626,3.5592,3.5576,3.5554,3.5528,3.552,3.5485,3.5456,3.5426,3.5386,3.5371,3.5346,3.5338,3.5357,3.5354,3.5351,3.5351,3.5343,3.5341,3.5332,3.5332,3.5332,0,3.5743,3.5728,3.5689,3.5674,3.5656,3.5632,3.5615,3.5586,3.5568,3.5532,3.552,3.549,3.5464,3.542,3.539,3.536,3.535,3.535,3.5345,3.5354,3.5351,3.5352,3.535,3.5351,3.5351,3.5351,3.5351,0,3.5742,3.573,3.5706,3.5678,3.5658,3.5634,3.5609,3.5598,3.5564,3.5546,3.5517,3.5497,3.5459,3.5429,3.5396,3.5375,3.5358,3.5354,3.5351,3.5358,3.537,3.5364,3.5361,3.5353,3.5353,3.5353,3.5353,3.5353,3.5745,3.5731,3.5702,3.5677,3.5655,3.5633,3.5617,3.5594,3.557,3.5537,3.5521,3.5493,3.5462,3.5416,3.5397,3.5374,3.5368,3.5364,3.5363,3.5362,3.5365,3.5375,3.5367,3.5367,3.5367,3.5367,3.5367,0,3.5743,3.5724,3.5701,3.5668,3.5648,3.5636,3.5608,3.5592,3.5568,3.5542,3.5518,3.5486,3.5458,3.5427,3.5397,3.5384,3.5376,3.5377,3.5378,3.5373,3.5371,3.5376,3.5385,3.5385,3.5385,3.5385,3.5385,3.5385,3.5739,3.5715,3.57,3.5666,3.5646,3.562,3.5605,3.5584,3.5564,3.553,3.5507,3.5488,3.546,3.5428,3.5402,3.5394,3.5384,3.5388,3.5377,3.5375,3.5373,3.5372,3.5377,3.5386,3.5386,3.5381,3.5381,3.5381]}]]